Regional Weather Roundup
Issued by NWS Goodland, KS

Home | Current Version | Previous Version | Text Only | Print | Product List | Glossary On
Versions: 1 2 3 4 5 6 7 8 9 10 11 12 13 14 15 16 17 18 19 20 21 22 23 24 25 26 27 28 29 30 31 32 33 34 35 36 37 38 39 40 41 42 43 44 45 46 47 48 49 50
000
ASUS43 KGLD 261508
RWRGLD

GOODLAND FORECAST AREA HOURLY WEATHER ROUNDUP
NATIONAL WEATHER SERVICE GOODLAND KS
900 AM MDT TUE SEP 26 2017

...OFFICIAL OBSERVATIONS...

CITY           SKY/WX    TMP DP  RH WIND       PRES   REMARKS
GOODLAND KS    CLOUDY    48  46  93 NW7       30.19R
HILL CITY KS   CLOUDY    50  47  89 N12       30.20R
IMPERIAL NEB   SUNNY     51  44  77 NW3       30.20R
MCCOOK NEB     CLOUDY    49  45  86 NW10      30.19S
AKRON CO       SUNNY     47  43  86 W8        30.21R
BURLINGTON CO  CLOUDY    48  45  89 NW3       30.21R
LIMON CO         N/A    N/A N/A N/A MISG      30.23R
$$

...UNOFFICIAL OBSERVATIONS...

CITY           SKY/WX    TMP DP  RH WIND       PRES   REMARKS
LENORA KS        N/A     50  32  50 MISG        N/A
NORTON KS      PTSUNNY   50  43  76 N12       30.19R
SHARON SPRINGS   N/A     47  46  95 NW8         N/A
KIT CARSON CO    N/A     47  43  86 CALM        N/A
YUMA CO        FAIR      46  45  93 W5        30.21R
$$




USA.gov is the U.S. government's official web portal to all federal, state and local government web resources and services.